Year,Month,Day,Hour,Minute,Value (Times are PST for temperature in C)
2013,05,07,00,00,19.30
2013,05,07,00,01,19.30
2013,05,07,00,02,19.20
2013,05,07,00,03,19.20
2013,05,07,00,04,19.20
2013,05,07,00,05,19.20
2013,05,07,00,06,19.20
2013,05,07,00,07,19.20
2013,05,07,00,08,19.10
2013,05,07,00,09,19.00
2013,05,07,00,10,18.90
2013,05,07,00,11,18.90
2013,05,07,00,12,18.80
2013,05,07,00,13,18.70
2013,05,07,00,14,18.60
2013,05,07,00,15,18.50
2013,05,07,00,16,18.50
2013,05,07,00,17,18.40
2013,05,07,00,18,18.30
2013,05,07,00,19,18.20
2013,05,07,00,20,18.10
2013,05,07,00,21,18.00
2013,05,07,00,22,18.00
2013,05,07,00,23,17.90
2013,05,07,00,24,17.90
2013,05,07,00,25,17.80
2013,05,07,00,26,17.80
2013,05,07,00,27,17.70
2013,05,07,00,28,17.60
2013,05,07,00,29,17.60
2013,05,07,00,30,17.60
2013,05,07,00,31,17.50
2013,05,07,00,32,17.50
2013,05,07,00,33,17.40
2013,05,07,00,34,17.40
2013,05,07,00,35,17.40
2013,05,07,00,36,17.40
2013,05,07,00,37,17.30
2013,05,07,00,38,17.30
2013,05,07,00,39,17.30
2013,05,07,00,40,17.30
2013,05,07,00,41,17.30
2013,05,07,00,42,17.30
2013,05,07,00,43,17.30
2013,05,07,00,44,17.30
2013,05,07,00,45,17.30
2013,05,07,00,46,17.30
2013,05,07,00,47,17.30
2013,05,07,00,48,17.30
2013,05,07,00,49,17.30
2013,05,07,00,50,17.30
2013,05,07,00,51,17.30
2013,05,07,00,52,17.40
2013,05,07,00,53,17.40
2013,05,07,00,54,17.40
2013,05,07,00,55,17.40
2013,05,07,00,56,17.40
2013,05,07,00,57,17.40
2013,05,07,00,58,17.50
2013,05,07,00,59,17.50
2013,05,07,01,00,17.50
2013,05,07,01,01,17.50
2013,05,07,01,02,17.50
2013,05,07,01,03,17.40
2013,05,07,01,04,17.30
2013,05,07,01,05,17.20
2013,05,07,01,06,17.20
2013,05,07,01,07,17.10
2013,05,07,01,08,17.00
2013,05,07,01,09,16.90
2013,05,07,01,10,16.80
2013,05,07,01,11,16.70
2013,05,07,01,12,16.70
2013,05,07,01,13,16.60
2013,05,07,01,14,16.60
2013,05,07,01,15,16.60
2013,05,07,01,16,16.60
2013,05,07,01,17,16.60
2013,05,07,01,18,16.50
2013,05,07,01,19,16.50
2013,05,07,01,20,16.40
2013,05,07,01,21,16.40
2013,05,07,01,22,16.30
2013,05,07,01,23,16.20
2013,05,07,01,24,16.10
2013,05,07,01,25,16.10
2013,05,07,01,26,16.00
2013,05,07,01,27,15.90
2013,05,07,01,28,15.80
2013,05,07,01,29,15.80
2013,05,07,01,30,15.70
2013,05,07,01,31,15.70
2013,05,07,01,32,15.70
2013,05,07,01,33,15.70
2013,05,07,01,34,15.80
2013,05,07,01,35,15.80
2013,05,07,01,36,15.80
2013,05,07,01,37,15.80
2013,05,07,01,38,15.80
2013,05,07,01,39,15.80
2013,05,07,01,40,15.80
2013,05,07,01,41,15.80
2013,05,07,01,42,15.80
2013,05,07,01,43,15.80
2013,05,07,01,44,15.80
2013,05,07,01,45,15.70
2013,05,07,01,46,15.70
2013,05,07,01,47,15.70
2013,05,07,01,48,15.70
2013,05,07,01,49,15.70
2013,05,07,01,50,15.60
2013,05,07,01,51,15.60
2013,05,07,01,52,15.50
2013,05,07,01,53,15.50
2013,05,07,01,54,15.40
2013,05,07,01,55,15.40
2013,05,07,01,56,15.40
2013,05,07,01,57,15.50
2013,05,07,01,58,15.60
2013,05,07,01,59,15.60
2013,05,07,02,00,15.60
2013,05,07,02,01,15.70
2013,05,07,02,02,15.70
2013,05,07,02,03,15.60
2013,05,07,02,04,15.60
2013,05,07,02,05,15.60
2013,05,07,02,06,15.50
2013,05,07,02,07,15.50
2013,05,07,02,08,15.40
2013,05,07,02,09,15.30
2013,05,07,02,10,15.30
2013,05,07,02,11,15.30
2013,05,07,02,12,15.30
2013,05,07,02,13,15.30
2013,05,07,02,14,15.40
2013,05,07,02,15,15.50
2013,05,07,02,16,15.50
2013,05,07,02,17,15.50
2013,05,07,02,18,15.50
2013,05,07,02,19,15.50
2013,05,07,02,20,15.50
2013,05,07,02,21,15.40
2013,05,07,02,22,15.40
2013,05,07,02,23,15.40
2013,05,07,02,24,15.40
2013,05,07,02,25,15.40
2013,05,07,02,26,15.40
2013,05,07,02,27,15.60
2013,05,07,02,28,15.70
2013,05,07,02,29,15.70
2013,05,07,02,30,15.60
2013,05,07,02,31,15.60
2013,05,07,02,32,15.50
2013,05,07,02,33,15.40
2013,05,07,02,34,15.40
2013,05,07,02,35,15.30
2013,05,07,02,36,15.30
2013,05,07,02,37,15.30
2013,05,07,02,38,15.20
2013,05,07,02,39,15.20
2013,05,07,02,40,15.20
2013,05,07,02,41,15.20
2013,05,07,02,42,15.20
2013,05,07,02,43,15.20
2013,05,07,02,44,15.20
2013,05,07,02,45,15.30
2013,05,07,02,46,15.20
2013,05,07,02,47,15.20
2013,05,07,02,48,15.20
2013,05,07,02,49,15.20
2013,05,07,02,50,15.10
2013,05,07,02,51,15.00
2013,05,07,02,52,15.00
2013,05,07,02,53,15.00
2013,05,07,02,54,15.00
2013,05,07,02,55,15.00
2013,05,07,02,56,15.00
2013,05,07,02,57,15.00
2013,05,07,02,58,15.00
2013,05,07,02,59,15.00
2013,05,07,03,00,15.00
2013,05,07,03,01,15.00
2013,05,07,03,02,14.90
2013,05,07,03,03,14.80
2013,05,07,03,04,14.80
2013,05,07,03,05,14.80
2013,05,07,03,06,14.90
2013,05,07,03,07,15.00
2013,05,07,03,08,15.00
2013,05,07,03,09,15.00
2013,05,07,03,10,15.10
2013,05,07,03,11,15.10
2013,05,07,03,12,15.00
2013,05,07,03,13,15.00
2013,05,07,03,14,15.00
2013,05,07,03,15,15.00
2013,05,07,03,16,15.00
2013,05,07,03,17,15.00
2013,05,07,03,18,15.00
2013,05,07,03,19,15.00
2013,05,07,03,20,15.00
2013,05,07,03,21,15.00
2013,05,07,03,22,15.00
2013,05,07,03,23,15.00
2013,05,07,03,24,15.00
2013,05,07,03,25,15.00
2013,05,07,03,26,14.80
2013,05,07,03,27,14.80
2013,05,07,03,28,14.80
2013,05,07,03,29,14.70
2013,05,07,03,30,14.70
2013,05,07,03,31,14.70
2013,05,07,03,32,14.70
2013,05,07,03,33,14.70
2013,05,07,03,34,14.70
2013,05,07,03,35,14.70
2013,05,07,03,36,14.70
2013,05,07,03,37,14.70
2013,05,07,03,38,14.70
2013,05,07,03,39,14.70
2013,05,07,03,40,14.70
2013,05,07,03,41,14.70
2013,05,07,03,42,14.70
2013,05,07,03,43,14.80
2013,05,07,03,44,14.80
2013,05,07,03,45,14.80
2013,05,07,03,46,14.80
2013,05,07,03,47,14.80
2013,05,07,03,48,14.80
2013,05,07,03,49,14.80
2013,05,07,03,50,14.80
2013,05,07,03,51,14.80
2013,05,07,03,52,14.90
2013,05,07,03,53,14.90
2013,05,07,03,54,14.90
2013,05,07,03,55,14.90
2013,05,07,03,56,14.90
2013,05,07,03,57,14.90
2013,05,07,03,58,14.90
2013,05,07,03,59,14.90
2013,05,07,04,00,15.00
2013,05,07,04,01,15.00
2013,05,07,04,02,15.00
2013,05,07,04,03,15.00
2013,05,07,04,04,15.00
2013,05,07,04,05,15.00
2013,05,07,04,06,15.00
2013,05,07,04,07,15.00
2013,05,07,04,08,15.00
2013,05,07,04,09,15.00
2013,05,07,04,10,15.00
2013,05,07,04,11,14.90
2013,05,07,04,12,14.80
2013,05,07,04,13,14.70
2013,05,07,04,14,14.70
2013,05,07,04,15,14.60
2013,05,07,04,16,14.60
2013,05,07,04,17,14.50
2013,05,07,04,18,14.50
2013,05,07,04,19,14.40
2013,05,07,04,20,14.30
2013,05,07,04,21,14.30
2013,05,07,04,22,14.30
2013,05,07,04,23,14.30
2013,05,07,04,24,14.30
2013,05,07,04,25,14.40
2013,05,07,04,26,14.40
2013,05,07,04,27,14.30
2013,05,07,04,28,14.30
2013,05,07,04,29,14.30
2013,05,07,04,30,14.20
2013,05,07,04,31,14.20
2013,05,07,04,32,14.10
2013,05,07,04,33,14.00
2013,05,07,04,34,14.00
2013,05,07,04,35,13.90
2013,05,07,04,36,13.90
2013,05,07,04,37,13.80
2013,05,07,04,38,13.80
2013,05,07,04,39,13.80
2013,05,07,04,40,13.80
2013,05,07,04,41,13.80
2013,05,07,04,42,13.80
2013,05,07,04,43,13.80
2013,05,07,04,44,13.80
2013,05,07,04,45,13.80
2013,05,07,04,46,13.80
2013,05,07,04,47,13.80
2013,05,07,04,48,13.80
2013,05,07,04,49,13.70
2013,05,07,04,50,13.70
2013,05,07,04,51,13.60
2013,05,07,04,52,13.60
2013,05,07,04,53,13.60
2013,05,07,04,54,13.50
2013,05,07,04,55,13.40
2013,05,07,04,56,13.40
2013,05,07,04,57,13.40
2013,05,07,04,58,13.30
2013,05,07,04,59,13.30
2013,05,07,05,00,13.20
2013,05,07,05,01,13.20
2013,05,07,05,02,13.20
2013,05,07,05,03,13.20
2013,05,07,05,04,13.10
2013,05,07,05,05,13.10
2013,05,07,05,06,13.10
2013,05,07,05,07,13.10
2013,05,07,05,08,13.10
2013,05,07,05,09,13.00
2013,05,07,05,10,13.00
2013,05,07,05,11,13.00
2013,05,07,05,12,12.90
2013,05,07,05,13,12.90
2013,05,07,05,14,12.90
2013,05,07,05,15,12.90
2013,05,07,05,16,12.90
2013,05,07,05,17,12.90
2013,05,07,05,18,13.00
2013,05,07,05,19,13.00
2013,05,07,05,20,13.00
2013,05,07,05,21,13.00
2013,05,07,05,22,13.00
2013,05,07,05,23,12.90
2013,05,07,05,24,12.90
2013,05,07,05,25,12.90
2013,05,07,05,26,12.80
2013,05,07,05,27,12.80
2013,05,07,05,28,12.70
2013,05,07,05,29,12.70
2013,05,07,05,30,12.70
2013,05,07,05,31,12.70
2013,05,07,05,32,12.70
2013,05,07,05,33,12.70
2013,05,07,05,34,12.70
2013,05,07,05,35,12.70
2013,05,07,05,36,12.70
2013,05,07,05,37,12.70
2013,05,07,05,38,12.70
2013,05,07,05,39,12.70
2013,05,07,05,40,12.70
2013,05,07,05,41,12.70
2013,05,07,05,42,12.80
2013,05,07,05,43,12.80
2013,05,07,05,44,12.80
2013,05,07,05,45,12.90
2013,05,07,05,46,12.90
2013,05,07,05,47,12.90
2013,05,07,05,48,12.90
2013,05,07,05,49,12.90
2013,05,07,05,50,12.90
2013,05,07,05,51,12.90
2013,05,07,05,52,12.90
2013,05,07,05,53,12.90
2013,05,07,05,54,12.90
2013,05,07,05,55,12.90
2013,05,07,05,56,12.80
2013,05,07,05,57,12.80
2013,05,07,05,58,12.80
2013,05,07,05,59,12.80
2013,05,07,06,00,12.80
2013,05,07,06,01,12.70
2013,05,07,06,02,12.70
2013,05,07,06,03,12.70
2013,05,07,06,04,12.60
2013,05,07,06,05,12.60
2013,05,07,06,06,12.60
2013,05,07,06,07,12.60
2013,05,07,06,08,12.50
2013,05,07,06,09,12.60
2013,05,07,06,10,12.60
2013,05,07,06,11,12.60
2013,05,07,06,12,12.60
2013,05,07,06,13,12.60
2013,05,07,06,14,12.60
2013,05,07,06,15,12.60
2013,05,07,06,16,12.70
2013,05,07,06,17,12.70
2013,05,07,06,18,12.70
2013,05,07,06,19,12.70
2013,05,07,06,20,12.80
2013,05,07,06,21,12.80
2013,05,07,06,22,12.80
2013,05,07,06,23,12.90
2013,05,07,06,24,12.90
2013,05,07,06,25,12.90
2013,05,07,06,26,13.00
2013,05,07,06,27,13.00
2013,05,07,06,28,13.00
2013,05,07,06,29,13.10
2013,05,07,06,30,13.10
2013,05,07,06,31,13.10
2013,05,07,06,32,13.10
2013,05,07,06,33,13.10
2013,05,07,06,34,13.20
2013,05,07,06,35,13.30
2013,05,07,06,36,13.40
2013,05,07,06,37,13.50
2013,05,07,06,38,13.60
2013,05,07,06,39,13.70
2013,05,07,06,40,13.80
2013,05,07,06,41,13.80
2013,05,07,06,42,13.90
2013,05,07,06,43,14.00
2013,05,07,06,44,14.00
2013,05,07,06,45,14.10
2013,05,07,06,46,14.10
2013,05,07,06,47,14.20
2013,05,07,06,48,14.30
2013,05,07,06,49,14.40
2013,05,07,06,50,14.50
2013,05,07,06,51,14.60
2013,05,07,06,52,14.70
2013,05,07,06,53,14.80
2013,05,07,06,54,14.90
2013,05,07,06,55,15.00
2013,05,07,06,56,15.00
2013,05,07,06,57,15.00
2013,05,07,06,58,15.00
2013,05,07,06,59,15.10
2013,05,07,07,00,15.20
2013,05,07,07,01,15.30
2013,05,07,07,02,15.30
2013,05,07,07,03,15.30
2013,05,07,07,04,15.30
2013,05,07,07,05,15.20
2013,05,07,07,06,15.10
2013,05,07,07,07,15.10
2013,05,07,07,08,15.10
2013,05,07,07,09,15.10
2013,05,07,07,10,15.10
2013,05,07,07,11,15.20
2013,05,07,07,12,15.30
2013,05,07,07,13,15.40
2013,05,07,07,14,15.50
2013,05,07,07,15,15.60
2013,05,07,07,16,15.70
2013,05,07,07,17,15.80
2013,05,07,07,18,15.90
2013,05,07,07,19,15.90
2013,05,07,07,20,16.00
2013,05,07,07,21,16.10
2013,05,07,07,22,16.10
2013,05,07,07,23,16.10
2013,05,07,07,24,16.20
2013,05,07,07,25,16.20
2013,05,07,07,26,16.30
2013,05,07,07,27,16.30
2013,05,07,07,28,16.40
2013,05,07,07,29,16.40
2013,05,07,07,30,16.50
2013,05,07,07,31,16.60
2013,05,07,07,32,16.60
2013,05,07,07,33,16.70
2013,05,07,07,34,16.70
2013,05,07,07,35,16.70
2013,05,07,07,36,16.70
2013,05,07,07,37,16.80
2013,05,07,07,38,16.80
2013,05,07,07,39,16.90
2013,05,07,07,40,16.90
2013,05,07,07,41,16.90
2013,05,07,07,42,16.90
2013,05,07,07,43,16.90
2013,05,07,07,44,16.80
2013,05,07,07,45,16.80
2013,05,07,07,46,16.70
2013,05,07,07,47,16.70
2013,05,07,07,48,16.60
2013,05,07,07,49,16.50
2013,05,07,07,50,16.50
2013,05,07,07,51,16.40
2013,05,07,07,52,16.40
2013,05,07,07,53,16.40
2013,05,07,07,54,16.40
2013,05,07,07,55,16.50
2013,05,07,07,56,16.60
2013,05,07,07,57,16.60
2013,05,07,07,58,16.70
2013,05,07,07,59,16.70
2013,05,07,08,00,16.70
2013,05,07,08,01,16.60
2013,05,07,08,02,16.60
2013,05,07,08,03,16.60
2013,05,07,08,04,16.60
2013,05,07,08,05,16.60
2013,05,07,08,06,16.70
2013,05,07,08,07,16.70
2013,05,07,08,08,16.70
2013,05,07,08,09,16.70
2013,05,07,08,10,16.80
2013,05,07,08,11,16.80
2013,05,07,08,12,16.80
2013,05,07,08,13,16.90
2013,05,07,08,14,16.90
2013,05,07,08,15,17.00
2013,05,07,08,16,17.10
2013,05,07,08,17,17.10
2013,05,07,08,18,17.20
2013,05,07,08,19,17.20
2013,05,07,08,20,17.20
2013,05,07,08,21,17.20
2013,05,07,08,22,17.20
2013,05,07,08,23,17.30
2013,05,07,08,24,17.30
2013,05,07,08,25,17.40
2013,05,07,08,26,17.40
2013,05,07,08,27,17.50
2013,05,07,08,28,17.60
2013,05,07,08,29,17.60
2013,05,07,08,30,17.70
2013,05,07,08,31,17.80
2013,05,07,08,32,17.90
2013,05,07,08,33,18.00
2013,05,07,08,34,18.00
2013,05,07,08,35,18.00
2013,05,07,08,36,18.00
2013,05,07,08,37,17.90
2013,05,07,08,38,17.90
2013,05,07,08,39,17.90
2013,05,07,08,40,18.00
2013,05,07,08,41,18.00
2013,05,07,08,42,18.10
2013,05,07,08,43,18.20
2013,05,07,08,44,18.30
2013,05,07,08,45,18.40
2013,05,07,08,46,18.50
2013,05,07,08,47,18.50
2013,05,07,08,48,18.60
2013,05,07,08,49,18.60
2013,05,07,08,50,18.50
2013,05,07,08,51,18.40
2013,05,07,08,52,18.30
2013,05,07,08,53,18.30
2013,05,07,08,54,18.20
2013,05,07,08,55,18.20
2013,05,07,08,56,18.20
2013,05,07,08,57,18.20
2013,05,07,08,58,18.30
2013,05,07,08,59,18.40
2013,05,07,09,00,18.50
2013,05,07,09,01,18.50
2013,05,07,09,02,18.60
2013,05,07,09,03,18.60
2013,05,07,09,04,18.60
2013,05,07,09,05,18.60
2013,05,07,09,06,18.60
2013,05,07,09,07,18.60
2013,05,07,09,08,18.60
2013,05,07,09,09,18.70
2013,05,07,09,10,18.70
2013,05,07,09,11,18.80
2013,05,07,09,12,18.90
2013,05,07,09,13,19.00
2013,05,07,09,14,19.10
2013,05,07,09,15,19.10
2013,05,07,09,16,19.10
2013,05,07,09,17,19.10
2013,05,07,09,18,19.10
2013,05,07,09,19,19.20
2013,05,07,09,20,19.20
2013,05,07,09,21,19.20
2013,05,07,09,22,19.20
2013,05,07,09,23,19.20
2013,05,07,09,24,19.20
2013,05,07,09,25,19.20
2013,05,07,09,26,19.30
2013,05,07,09,27,19.30
2013,05,07,09,28,19.40
2013,05,07,09,29,19.40
2013,05,07,09,30,19.40
2013,05,07,09,31,19.30
2013,05,07,09,32,19.30
2013,05,07,09,33,19.30
2013,05,07,09,34,19.20
2013,05,07,09,35,19.20
2013,05,07,09,36,19.20
2013,05,07,09,37,19.20
2013,05,07,09,38,19.20
2013,05,07,09,39,19.30
2013,05,07,09,40,19.30
2013,05,07,09,41,19.40
2013,05,07,09,42,19.40
2013,05,07,09,43,19.40
2013,05,07,09,44,19.40
2013,05,07,09,45,19.30
2013,05,07,09,46,19.30
2013,05,07,09,47,19.20
2013,05,07,09,48,19.10
2013,05,07,09,49,19.10
2013,05,07,09,50,19.00
2013,05,07,09,51,19.00
2013,05,07,09,52,19.00
2013,05,07,09,53,18.90
2013,05,07,09,54,18.90
2013,05,07,09,55,18.80
2013,05,07,09,56,18.80
2013,05,07,09,57,18.80
2013,05,07,09,58,18.80
2013,05,07,09,59,18.80
2013,05,07,10,00,18.80
2013,05,07,10,01,18.80
2013,05,07,10,02,18.70
2013,05,07,10,03,18.70
2013,05,07,10,04,18.70
2013,05,07,10,05,18.70
2013,05,07,10,06,18.70
2013,05,07,10,07,18.80
2013,05,07,10,08,18.90
2013,05,07,10,09,19.00
2013,05,07,10,10,19.00
2013,05,07,10,11,19.00
2013,05,07,10,12,19.00
2013,05,07,10,13,18.90
2013,05,07,10,14,18.80
2013,05,07,10,15,18.80
2013,05,07,10,16,18.80
2013,05,07,10,17,18.80
2013,05,07,10,18,18.90
2013,05,07,10,19,18.90
2013,05,07,10,20,18.90
2013,05,07,10,21,18.90
2013,05,07,10,22,18.90
2013,05,07,10,23,18.90
2013,05,07,10,24,18.90
2013,05,07,10,25,18.90
2013,05,07,10,26,18.80
2013,05,07,10,27,18.80
2013,05,07,10,28,18.90
2013,05,07,10,29,19.00
2013,05,07,10,30,19.00
2013,05,07,10,31,18.90
2013,05,07,10,32,18.80
2013,05,07,10,33,18.70
2013,05,07,10,34,18.70
2013,05,07,10,35,18.70
2013,05,07,10,36,18.70
2013,05,07,10,37,18.70
2013,05,07,10,38,18.70
2013,05,07,10,39,18.80
2013,05,07,10,40,18.90
2013,05,07,10,41,19.00
2013,05,07,10,42,19.10
2013,05,07,10,43,19.10
2013,05,07,10,44,19.20
2013,05,07,10,45,19.30
2013,05,07,10,46,19.40
2013,05,07,10,47,19.50
2013,05,07,10,48,19.50
2013,05,07,10,49,19.50
2013,05,07,10,50,19.40
2013,05,07,10,51,19.40
2013,05,07,10,52,19.50
2013,05,07,10,53,19.60
2013,05,07,10,54,19.60
2013,05,07,10,55,19.60
2013,05,07,10,56,19.70
2013,05,07,10,57,19.80
2013,05,07,10,58,19.80
2013,05,07,10,59,19.80
2013,05,07,11,00,19.80
2013,05,07,11,01,19.70
2013,05,07,11,02,19.80
2013,05,07,11,03,19.70
2013,05,07,11,04,19.60
2013,05,07,11,05,19.50
2013,05,07,11,06,19.40
2013,05,07,11,07,19.30
2013,05,07,11,08,19.30
2013,05,07,11,09,19.40
2013,05,07,11,10,19.40
2013,05,07,11,11,19.50
2013,05,07,11,12,19.60
2013,05,07,11,13,19.70
2013,05,07,11,14,19.60
2013,05,07,11,15,19.50
2013,05,07,11,16,19.40
2013,05,07,11,17,19.30
2013,05,07,11,18,19.30
2013,05,07,11,19,19.30
2013,05,07,11,20,19.40
2013,05,07,11,21,19.40
2013,05,07,11,22,19.50
2013,05,07,11,23,19.50
2013,05,07,11,24,19.60
2013,05,07,11,25,19.60
2013,05,07,11,26,19.50
2013,05,07,11,27,19.50
2013,05,07,11,28,19.50
2013,05,07,11,29,19.60
2013,05,07,11,30,19.60
2013,05,07,11,31,19.60
2013,05,07,11,32,19.60
2013,05,07,11,33,19.60
2013,05,07,11,34,19.50
2013,05,07,11,35,19.50
2013,05,07,11,36,19.50
2013,05,07,11,37,19.50
2013,05,07,11,38,19.40
2013,05,07,11,39,19.40
2013,05,07,11,40,19.40
2013,05,07,11,41,19.30
2013,05,07,11,42,19.30
2013,05,07,11,43,19.30
2013,05,07,11,44,19.30
2013,05,07,11,45,19.40
2013,05,07,11,46,19.40
2013,05,07,11,47,19.40
2013,05,07,11,48,19.40
2013,05,07,11,49,19.40
2013,05,07,11,50,19.40
2013,05,07,11,51,19.40
2013,05,07,11,52,19.40
2013,05,07,11,53,19.40
2013,05,07,11,54,19.40
2013,05,07,11,55,19.50
2013,05,07,11,56,19.60
2013,05,07,11,57,19.70
2013,05,07,11,58,19.80
2013,05,07,11,59,19.80
2013,05,07,12,00,19.80
2013,05,07,12,01,19.70
2013,05,07,12,02,19.60
2013,05,07,12,03,19.50
2013,05,07,12,04,19.30
2013,05,07,12,05,19.20
2013,05,07,12,06,19.10
2013,05,07,12,07,19.10
2013,05,07,12,08,19.20
2013,05,07,12,09,19.30
2013,05,07,12,10,19.30
2013,05,07,12,11,19.30
2013,05,07,12,12,19.30
2013,05,07,12,13,19.30
2013,05,07,12,14,19.30
2013,05,07,12,15,19.30
2013,05,07,12,16,19.20
2013,05,07,12,17,19.10
2013,05,07,12,18,19.00
2013,05,07,12,19,19.00
2013,05,07,12,20,19.00
2013,05,07,12,21,19.10
2013,05,07,12,22,19.10
2013,05,07,12,23,19.20
2013,05,07,12,24,19.20
2013,05,07,12,25,19.30
2013,05,07,12,26,19.40
2013,05,07,12,27,19.40
2013,05,07,12,28,19.40
2013,05,07,12,29,19.40
2013,05,07,12,30,19.50
2013,05,07,12,31,19.50
2013,05,07,12,32,19.40
2013,05,07,12,33,19.50
2013,05,07,12,34,19.40
2013,05,07,12,35,19.30
2013,05,07,12,36,19.20
2013,05,07,12,37,19.00
2013,05,07,12,38,18.90
2013,05,07,12,39,18.90
2013,05,07,12,40,18.90
2013,05,07,12,41,19.00
2013,05,07,12,42,19.10
2013,05,07,12,43,19.10
2013,05,07,12,44,18.90
2013,05,07,12,45,19.00
2013,05,07,12,46,19.00
2013,05,07,12,47,18.90
2013,05,07,12,48,18.90
2013,05,07,12,49,18.80
2013,05,07,12,50,18.70
2013,05,07,12,51,18.80
2013,05,07,12,52,18.90
2013,05,07,12,53,18.90
2013,05,07,12,54,18.80
2013,05,07,12,55,18.70
2013,05,07,12,56,18.80
2013,05,07,12,57,18.80
2013,05,07,12,58,18.80
2013,05,07,12,59,18.70
2013,05,07,13,00,18.70
2013,05,07,13,01,18.60
2013,05,07,13,02,18.50
2013,05,07,13,03,18.50
2013,05,07,13,04,18.60
2013,05,07,13,05,18.70
2013,05,07,13,06,18.80
2013,05,07,13,07,19.00
2013,05,07,13,08,19.10
2013,05,07,13,09,19.20
2013,05,07,13,10,19.30
2013,05,07,13,11,19.30
2013,05,07,13,12,19.30
2013,05,07,13,13,19.30
2013,05,07,13,14,19.40
2013,05,07,13,15,19.50
2013,05,07,13,16,19.60
2013,05,07,13,17,19.60
2013,05,07,13,18,19.60
2013,05,07,13,19,19.60
2013,05,07,13,20,19.60
2013,05,07,13,21,19.60
2013,05,07,13,22,19.50
2013,05,07,13,23,19.40
2013,05,07,13,24,19.40
2013,05,07,13,25,19.40
2013,05,07,13,26,19.50
2013,05,07,13,27,19.60
2013,05,07,13,28,19.50
2013,05,07,13,29,19.40
2013,05,07,13,30,19.40
2013,05,07,13,31,19.40
2013,05,07,13,32,19.40
2013,05,07,13,33,19.40
2013,05,07,13,34,19.40
2013,05,07,13,35,19.40
2013,05,07,13,36,19.40
2013,05,07,13,37,19.30
2013,05,07,13,38,19.30
2013,05,07,13,39,19.30
2013,05,07,13,40,19.30
2013,05,07,13,41,19.20
2013,05,07,13,42,19.20
2013,05,07,13,43,19.30
2013,05,07,13,44,19.40
2013,05,07,13,45,19.40
2013,05,07,13,46,19.40
2013,05,07,13,47,19.30
2013,05,07,13,48,19.40
2013,05,07,13,49,19.50
2013,05,07,13,50,19.60
2013,05,07,13,51,19.70
2013,05,07,13,52,19.70
2013,05,07,13,53,19.80
2013,05,07,13,54,19.80
2013,05,07,13,55,19.80
2013,05,07,13,56,19.80
2013,05,07,13,57,19.90
2013,05,07,13,58,19.90
2013,05,07,13,59,20.00
2013,05,07,14,00,20.00
2013,05,07,14,01,19.80
2013,05,07,14,02,19.80
2013,05,07,14,03,19.70
2013,05,07,14,04,19.70
2013,05,07,14,05,19.70
2013,05,07,14,06,19.60
2013,05,07,14,07,19.70
2013,05,07,14,08,19.80
2013,05,07,14,09,19.90
2013,05,07,14,10,19.90
2013,05,07,14,11,19.70
2013,05,07,14,12,19.60
2013,05,07,14,13,19.30
2013,05,07,14,14,19.20
2013,05,07,14,15,19.20
2013,05,07,14,16,19.30
2013,05,07,14,17,19.40
2013,05,07,14,18,19.30
2013,05,07,14,19,19.30
2013,05,07,14,20,19.20
2013,05,07,14,21,19.30
2013,05,07,14,22,19.40
2013,05,07,14,23,19.30
2013,05,07,14,24,19.20
2013,05,07,14,25,19.30
2013,05,07,14,26,19.50
2013,05,07,14,27,19.60
2013,05,07,14,28,19.60
2013,05,07,14,29,19.50
2013,05,07,14,30,19.40
2013,05,07,14,31,19.30
2013,05,07,14,32,19.30
2013,05,07,14,33,19.40
2013,05,07,14,34,19.40
2013,05,07,14,35,19.40
2013,05,07,14,36,19.50
2013,05,07,14,37,19.40
2013,05,07,14,38,19.40
2013,05,07,14,39,19.30
2013,05,07,14,40,19.10
2013,05,07,14,41,18.90
2013,05,07,14,42,18.80
2013,05,07,14,43,18.80
2013,05,07,14,44,18.80
2013,05,07,14,45,18.80
2013,05,07,14,46,18.90
2013,05,07,14,47,18.80
2013,05,07,14,48,18.60
2013,05,07,14,49,18.40
2013,05,07,14,50,18.30
2013,05,07,14,51,18.20
2013,05,07,14,52,18.20
2013,05,07,14,53,18.20
2013,05,07,14,54,18.30
2013,05,07,14,55,18.30
2013,05,07,14,56,18.30
2013,05,07,14,57,18.30
2013,05,07,14,58,18.20
2013,05,07,14,59,18.10
2013,05,07,15,00,18.20
2013,05,07,15,01,18.20
2013,05,07,15,02,18.10
2013,05,07,15,03,18.10
2013,05,07,15,04,18.20
2013,05,07,15,05,18.20
2013,05,07,15,06,18.10
2013,05,07,15,07,18.10
2013,05,07,15,08,18.10
2013,05,07,15,09,18.10
2013,05,07,15,10,18.10
2013,05,07,15,11,18.20
2013,05,07,15,12,18.20
2013,05,07,15,13,18.30
2013,05,07,15,14,18.40
2013,05,07,15,15,18.50
2013,05,07,15,16,18.60
2013,05,07,15,17,18.60
2013,05,07,15,18,18.60
2013,05,07,15,19,18.60
2013,05,07,15,20,18.60
2013,05,07,15,21,18.50
2013,05,07,15,22,18.40
2013,05,07,15,23,18.40
2013,05,07,15,24,18.50
2013,05,07,15,25,18.50
2013,05,07,15,26,18.40
2013,05,07,15,27,18.30
2013,05,07,15,28,18.30
2013,05,07,15,29,18.30
2013,05,07,15,30,18.40
2013,05,07,15,31,18.40
2013,05,07,15,32,18.50
2013,05,07,15,33,18.60
2013,05,07,15,34,18.50
2013,05,07,15,35,18.50
2013,05,07,15,36,18.40
2013,05,07,15,37,18.40
2013,05,07,15,38,18.50
2013,05,07,15,39,18.50
2013,05,07,15,40,18.60
2013,05,07,15,41,18.60
2013,05,07,15,42,18.70
2013,05,07,15,43,18.70
2013,05,07,15,44,18.70
2013,05,07,15,45,18.70
2013,05,07,15,46,18.70
2013,05,07,15,47,18.70
2013,05,07,15,48,18.70
2013,05,07,15,49,18.70
2013,05,07,15,50,18.80
2013,05,07,15,51,18.90
2013,05,07,15,52,18.90
2013,05,07,15,53,19.00
2013,05,07,15,54,19.00
2013,05,07,15,55,19.10
2013,05,07,15,56,19.10
2013,05,07,15,57,19.10
2013,05,07,15,58,19.00
2013,05,07,15,59,19.00
2013,05,07,16,00,19.10
2013,05,07,16,01,19.10
2013,05,07,16,02,19.10
2013,05,07,16,03,19.10
2013,05,07,16,04,19.10
2013,05,07,16,05,19.10
2013,05,07,16,06,19.10
2013,05,07,16,07,19.10
2013,05,07,16,08,19.10
2013,05,07,16,09,19.10
2013,05,07,16,10,19.20
2013,05,07,16,11,19.20
2013,05,07,16,12,19.20
2013,05,07,16,13,19.30
2013,05,07,16,14,19.30
2013,05,07,16,15,19.30
2013,05,07,16,16,19.30
2013,05,07,16,17,19.40
2013,05,07,16,18,19.40
2013,05,07,16,19,19.40
2013,05,07,16,20,19.40
2013,05,07,16,21,19.40
2013,05,07,16,22,19.40
2013,05,07,16,23,19.50
2013,05,07,16,24,19.50
2013,05,07,16,25,19.50
2013,05,07,16,26,19.50
2013,05,07,16,27,19.50
2013,05,07,16,28,19.50
2013,05,07,16,29,19.40
2013,05,07,16,30,19.50
2013,05,07,16,31,19.60
2013,05,07,16,32,19.70
2013,05,07,16,33,19.80
2013,05,07,16,34,19.80
2013,05,07,16,35,19.80
2013,05,07,16,36,19.80
2013,05,07,16,37,19.80
2013,05,07,16,38,19.90
2013,05,07,16,39,19.90
2013,05,07,16,40,20.00
2013,05,07,16,41,20.10
2013,05,07,16,42,20.20
2013,05,07,16,43,20.20
2013,05,07,16,44,20.20
2013,05,07,16,45,20.10
2013,05,07,16,46,20.10
2013,05,07,16,47,20.20
2013,05,07,16,48,20.20
2013,05,07,16,49,20.20
2013,05,07,16,50,20.20
2013,05,07,16,51,20.20
2013,05,07,16,52,20.10
2013,05,07,16,53,20.10
2013,05,07,16,54,20.10
2013,05,07,16,55,20.10
2013,05,07,16,56,20.20
2013,05,07,16,57,20.20
2013,05,07,16,58,20.20
2013,05,07,16,59,20.30
2013,05,07,17,00,20.30
2013,05,07,17,01,20.30
2013,05,07,17,02,20.30
2013,05,07,17,03,20.20
2013,05,07,17,04,20.30
2013,05,07,17,05,20.30
2013,05,07,17,06,20.20
2013,05,07,17,07,20.20
2013,05,07,17,08,20.20
2013,05,07,17,09,20.20
2013,05,07,17,10,20.20
2013,05,07,17,11,20.20
2013,05,07,17,12,20.10
2013,05,07,17,13,20.10
2013,05,07,17,14,20.10
2013,05,07,17,15,20.10
2013,05,07,17,16,20.10
2013,05,07,17,17,20.10
2013,05,07,17,18,20.10
2013,05,07,17,19,20.10